Home > Time Zones > World Clock > Weather > Spain > Palma > Past weeks

Flag for Spain Weather past 2 weeks in Palma, Majorca, Spain

Now
82 °F

Clear.


Feels Like: 83 °F
Forecast: 71 / 93 °F
Wind: 1 mph from East

Location: Palma De Mallorca / Son San Juan

Current Time: Jul 5, 2015 at 11:14:55 PM

Latest Report: Jul 5, 2015 at 10:30 PM


Visibility: 10 mi

Pressure: 30.09 "Hg

Humidity: 51%

Dew point: 63 °F

Location of PalmaLocation

Historic Weather in Palma — Graph

°F

Palma temperature yesterday

Maximum temperature yesterday: 102 °F (at 3:30 PM)
Minimum temperature yesterday: 75 °F (at 6:30 AM)
Average temperature yesterday: 89 °F

Past Weeks' High & Low Weather Summary

 TemperatureHumidityPressure
High102 °F (Jul 4, 3:30 PM)100% (Jun 21, 5:00 AM)30.18 "Hg (Jun 21, 5:00 AM)
Low59 °F (Jun 27, 6:30 AM)19% (Jul 1, 5:00 PM)29.86 "Hg (Jun 23, 5:30 AM)
Average80 °F56%30.08 "Hg
* Reported Jun 20 10:00 PM — Jul 5 10:00 PM, Palma, Weather by CustomWeather, © 2015

Note: Actual official high and low records may vary slightly from our data, if they occured in-between our weather recording intervals... More about our weather records

Advertising

Palma weather history for previous 24 hours

 ConditionsComfort  
Time TempWeatherWind HumidityBarometerVisibility
10:00 PM
Sun, Jul 5
88 °FSunny.1 mph38%30.07 "Hg10 mi
9:30 PM84 °FSunny.2 mph55%30.07 "Hg10 mi
9:00 PM86 °FPassing clouds.3 mph55%30.07 "HgN/A
8:30 PM88 °FPassing clouds.7 mph52%30.07 "HgN/A
8:00 PM90 °FPassing clouds.6 mph46%30.07 "HgN/A
7:30 PM90 °FPassing clouds.7 mph49%30.04 "HgN/A
7:00 PM91 °FPassing clouds.7 mph46%30.04 "HgN/A
6:30 PM90 °FPassing clouds.6 mph52%30.07 "HgN/A
6:00 PM97 °FPassing clouds.10 mph32%30.07 "HgN/A
5:30 PM97 °FPassing clouds.9 mph30%30.07 "HgN/A
5:00 PM95 °FPassing clouds.13 mph34%30.07 "HgN/A
4:30 PM91 °FSunny.14 mph46%30.07 "Hg10 mi
4:00 PM90 °FPassing clouds.15 mph52%30.07 "HgN/A
3:30 PM95 °FSunny.14 mph32%30.07 "Hg10 mi
3:00 PM97 °FSunny.15 mph30%30.07 "Hg10 mi
2:30 PM95 °FPassing clouds.14 mph36%30.07 "HgN/A
2:00 PM95 °FPassing clouds.12 mph34%30.07 "HgN/A
1:30 PM93 °FSunny.13 mph34%30.07 "Hg10 mi
1:00 PM95 °FSunny.13 mph30%30.09 "Hg10 mi
12:30 PM97 °FSunny.9 mph27%30.07 "Hg10 mi
12:00 PM97 °FPassing clouds.7 mph27%30.07 "HgN/A
11:30 AM97 °FSunny.2 mph25%30.07 "Hg10 mi
11:00 AM93 °FSunny.2 mph30%30.07 "Hg10 mi
10:30 AM91 °FSunny.1 mph32%30.07 "Hg10 mi
10:00 AM91 °FSunny.1 mph32%30.07 "Hg10 mi
9:30 AM90 °FSunny.1 mph33%30.09 "Hg10 mi
9:00 AM84 °FSunny.2 mph43%30.09 "Hg10 mi
8:30 AM81 °FSunny.1 mph48%30.09 "Hg10 mi
8:00 AM77 °FSunny.2 mph51%30.09 "Hg10 mi
7:30 AM72 °FSunny.1 mph61%30.09 "Hg10 mi
7:00 AM70 °FClear.2 mph64%30.09 "Hg10 mi
6:30 AM68 °FClear.No wind69%30.09 "Hg10 mi
5:30 AM70 °FClear.2 mph64%30.09 "Hg10 mi
5:00 AM72 °FClear.No wind61%30.09 "Hg10 mi
4:30 AM72 °FClear.2 mph61%30.09 "Hg10 mi
4:00 AM72 °FClear.No wind61%30.09 "Hg10 mi
3:30 AM75 °FClear.No wind54%30.09 "Hg10 mi
3:00 AM75 °FClear.1 mph54%30.09 "Hg10 mi
2:30 AM75 °FClear.1 mph54%30.12 "Hg10 mi
2:00 AM75 °FClear.2 mph54%30.12 "Hg10 mi
1:30 AM77 °FClear.2 mph51%30.12 "Hg10 mi
1:00 AM79 °FClear.2 mph48%30.12 "Hg10 mi
12:30 AM81 °FClear.3 mph45%30.12 "Hg10 mi
12:00 AM81 °FClear.2 mph45%30.12 "Hg10 mi
11:30 PM
Sat, Jul 4
82 °FClear.2 mph42%30.12 "Hg10 mi
11:00 PM82 °FClear.7 mph42%30.12 "Hg10 mi
Weather by CustomWeather, © 2015

See weather overviewHow to use our weather pages